Погода в Днепропетровске

Погода в Днепропетровске : погода сейчас, прогноз погоды и архив. Всё, что Вы хотите узнать о погоде в Днепропетровске!

Хотите узнать прогноз погоды в Днепропетровске? Тогда Вам сюда: Погода в Днепропетровске

Поиск расширенной информации на нашем сайте:

Другие новости

Новости СМИ2

Главная страница сайта

Новости сайта

02.10.2013

Напоминаем, что на нашем новом сайте вы можете получить высокодетализированные прогнозы погоды по пунктам России, СНГ и мира (включающие важные для авиации метеовеличины, такие как направление и скорость ветра, видимость, явления погоды, количество и форма облачности, нижняя и верхняя граница облачности), а также ознакомиться с разнообразными материалами по авиационной метеорологии и подборкой полезных ссылок на эту тему.

Сайт Метеоцентр.Азия посвящён разработке технологий оптимизации авиаметеорологического обслуживания, включая проектирование и перспективное создание нескольких автоматизированных авиаметеорологических систем:
- система выпуска высокодетальных прогностических карт явлений погоды для нижнего воздушного пространства по России и ближнему зарубежью;
- система верификации прогнозов TAF (выпускаемых синоптиками официальных АМСГ РФ и ближнего зарубежья) и AUTOTAF (выпускаемых сайтом Метеоцентр.Азия) - выявление ошибок, онлайн-сопоставление с фактической погодой METAR, автоматическое внесение коррективов в прогнозы при резком отклонении фактической погоды от прогноза, подсчёт оправдываемости прогнозов по элементам и в целом;
- система обработки, анализа и отображения авиаметеорологической информации для применения провайдерами метеорологической информации.

Рекомендуем: Подольск и ремонт ноутбуков Щербинка. Ремонт ноутбуков в Подольске лучшие цены в Москве.

Погода в Днепропетровске - сегодня

Время (UTC), дата Ветер
(°,м/с) 
Видим.   Явления Облачность Т
(°С)
Тd
(°С)
f(%) Тe
(°С)
Pmin
(гПа)
dP
(гПа)
Po
(мм)
O2
(г/м3)
Тmin Tmax R s Состояние
почвы
09 16.02.17 020 (С) 10 км    3/0 верхняя 
[Ci sp]
-3 -10.3 57 -5  1032.5  0.1  760  311           
12 16.02.17 020 (С) 10 км    3/0 верхняя 
[Cc]
-0.8 -10 50 -3  1031.8  -0.5  760  308           
15 16.02.17 010 (С) 10 км    3/0 верхняя 
[Cc]
-4.1 -10.5 61 -5  1032.4  0.3  760  312           
18 16.02.17 020 (С) 10 км    3/0 верхняя 
[Ci sp]
-7.3 -11.2 74 -7  1032.7  0.1  760  316    -0.7       
21 16.02.17 тихо ()   10 км    ясно 
-9.1 -11.6 82 -9  1032.6  -0.2  760  318           
00 17.02.17 тихо ()   10 км    ясно 
-10.8 -12.7 86 -11  1032.4  -0.4  760  320           
03 17.02.17 210 (ЮЗ) 10 км    ясно 
-11.8 -13.1 90 -14  1031.5  -0.9  759  321           
06 17.02.17 210 (ЮЗ) 10 км    8/0 средняя 
[Ac trans]
-10.4 -12.7 83 -12  1030.6  -0.8  758  319  -12.1      18  равномерный
сухой снег
100% 
09 17.02.17 220 (ЮЗ) 10 км    9/9 1500 м 
[Sc]
-5.8 -8.8 79 -10  1028.8  -1.4  757  313           
12 17.02.17 210 (ЮЗ) 10 км    9/9 1500 м 
[Sc]
-3.2 -7.5 72 -8  1026.5  -2.1  756  309           
15 17.02.17 210 (ЮЗ) 10 км    9/9 1500 м 
[Sc]
-2.8 -5.8 80 -7  1025  -1.4  755  308           
18 17.02.17 220 (ЮЗ) 10 км    9/9 1000 м 
[Sc]
-2.1 -4.9 81 -6  1024.4  -0.6  754  307    -2.1       
21 17.02.17 220 (ЮЗ) 10 км  в посл. час снег  9/9 1200 м 
[Sc]
-1 -3.2 85 -5  1023.5  -0.8  754  305           
00 18.02.17 230 (ЮЗ) 10 км  {снег}  10/8 700 м средняя 
[Sc|Ac und]
-2.3 -4.8 83 -6  1023.3  -0.3  754  307      0.0     
03 18.02.17 210 (ЮЗ) 10 км  {снег}  10/10 540 м 
[Sc]
-2.2 -4.4 85 -5  1022.7  -0.6  753  306           
06 18.02.17 230 (ЮЗ) 10 км  слаб. снег  10/5 300 м средняя 
[Frnb|As op]
-1.5 -3.2 88 -4  1022.8  0.2  753  306  -2.6    0.0  18  равномерный
сухой снег
100% 
09 18.02.17 220 (ЮЗ) 10 км    10/10 720 м 
[Sc]
+0.3 -2.1 84 -2  1022.5  -0.2  753  303           
12 18.02.17 220 (ЮЗ) 10 км    9/9 900 м 
[Sc]
+1.1 -1.5 83 -1  1021.5  -0.9  752  302           
15 18.02.17 220 (ЮЗ) 10 км    10/10 870 м 
[Sc]
+0.8 -1.2 86 +1  1021.7  0.2  753  302           
18 18.02.17 210 (ЮЗ) 10 км    10/10 800 м 
[Sc]
+0.6 -1.1 88 1022.2  0.5  753  303    +1.6       
21 18.02.17 230 (ЮЗ) 10 км    10/10 400 м 
[Sc]
+0.7 -1 88 -1  1023.3  754  303           
00 19.02.17 250 (З) 10 км  слаб. дождь со снегом  10/9 240 м средняя 
[Frnb|As op]
+0.5 -0.6 92 -2  1023.8  0.5  754  303      0.0     
03 19.02.17 250 (З) 3300 м  дымка{снег}  10/10 100 м 
[St]
+0.4 -0.2 96 -1  1024.4  0.6  755  304           
06 19.02.17 260 (З) 1000 м  дымка{снег}  10/10 60 м 
[St]
+0.4 +0.1 98 1025.8  1.4  756  304  +0.3    0.0  17  равномерный
мокрый или
старый снег
100% 
09 19.02.17 250 (З) 3100 м  дымка  10/10 150 м 
[St]
+1.6 +0.5 92 1026.6  0.8  756  303           
Время (UTC), дата Ветер
(°,м/с) 
Видим.   Явления Облачность Т
(°С)
Тd
(°С)
f(%) Тe
(°С)
Pmin
(гПа)
dP
(гПа)
Po
(мм)
O2
(г/м3)
Тmin Tmax R s Состояние
почвы

Для получения пояснительной информации подведите курсор к названию столбца.

ПОГОДА в Днепропетровске - архив

Всё, что Вы хотите узнать о погоде в Днепропетровске - удобно и подробно!

Выберите нужную дату (начиная с 1 января 2015* года) и нажмите кнопку "Найти".
Будут отображены архивные сводки погоды по пункту Днепропетровск, начиная с указанной даты.


Отображать данные в формате CSV (для использования в таблицах Excel)


Внимание! Наш архив погоды предназначен исключительно для личного некоммерческого использования в познавательных целях. Если Вам необходимы официальные справки о состоянии погоды (для производственных, юридических, коммерческих и т.п. целей), обращайтесь в органы Росгидромета.

*Примечание: данная дата относится к архиву по метеостанциям СССР (Россия, СНГ, Балтия).
Архив по метеостанциям Зарубежной Европы и Азии (кроме Китая) хранится 10 дней, по другим регионам земного шара (Китай, Африка, Америка, Австралия, Океания) - 1 день.

Днепропетровск - район местоположения метеостанции


Название, широта, долгота, высота метеостанции:
Днепропетровск (Кайдаки) 48.6°ш. 35°д. 143 м над ур. моря [Украина]

Дополнительная информация

В oтличие oт бoльшинства пoгoдных сайтoв мы публикуем пoдрoбную метеoинфoрмацию в детальнoм прoфессиoнальнoм фoрмате.

Характеристики температуры и влажнoсти вoздуха измеряются на высoте 2 м в тени вдали oт зданий и деревьев.
Скoрoсть ветра измеряется на высoте 10 м (на урoвне рoста челoвека скoрoсть ветра ниже в 1.5-2 раза). Если метеoстанция нахoдится в гoрoде или в лесу, тo скoрoсть ветра занижена на 2-4 м/с пo сравнению с oткрытым местoм. Скoрoсть ветра над акватoриями крупных рек и oзёр, а также на вершинах хoлмoв на 2-5 м/с выше, чем в oбычных услoвиях.
Атмoсфернoе давление в разных тoчках местнoсти мoжет значительнo oтличаться oт давления на метеoстанции, в зависимoсти oт услoвий рельефа (при пoдъёме на 10 м давление пoнижается примернo на 1 мм рт.ст.).